Overview Statistics Trail Chart Weather Telemetry Raw packets
 

This is the latest recevied weather packets stored in our database for station/object W1RCP. If no packets are shown the sender has not sent any weather packets the latest 10 day(s).

<< 108 109 110 111 112 113 114 >>
Time Temp. Humidity Pressure Rain* Wind** Luminosity Snow
1787794323 25° C 96% 1027 hPa 0 mm - 0 W/m² -
1787794018 25° C 96% 1027 hPa 0 mm - 0 W/m² -
1787793716 25° C 96% 1026.8 hPa 0 mm - 0 W/m² -
1787793415 25° C 95% 1026.8 hPa 0 mm - 0 W/m² -
1787793115 25° C 95% 1026.6 hPa 0 mm - 0 W/m² -
1787792810 25° C 95% 1026.4 hPa 0 mm - 0 W/m² -
1787792505 25.56° C 94% 1026.2 hPa 0 mm - 0 W/m² -
1787792202 25.56° C 94% 1026.1 hPa 0 mm - 0 W/m² -
1787791901 25.56° C 93% 1026 hPa 0 mm - 0 W/m² -
1787791600 25.56° C 93% 1026 hPa 0 mm - 0 W/m² -
1787791297 25.56° C 92% 1026 hPa 0 mm - 0 W/m² -
1787790992 25.56° C 92% 1026 hPa 0 mm - 0 W/m² -
1787790687 25.56° C 92% 1025.8 hPa 0 mm - 0 W/m² -
1787790382 26.11° C 92% 1025.6 hPa 0 mm - 0 W/m² -
1787790078 26.11° C 91% 1025.9 hPa 0 mm - 0 W/m² -
1787789774 26.67° C 90% 1025.8 hPa 0 mm - 1 W/m² -
1787789468 26.67° C 89% 1025.7 hPa 0 mm - 1 W/m² -
1787789166 26.67° C 88% 1025.7 hPa 0 mm - 3 W/m² -
1787788861 27.22° C 86% 1025.7 hPa 0 mm - 5 W/m² -
1787788559 27.78° C 85% 1025.6 hPa 0 mm - 10 W/m² -
1787788255 27.78° C 83% 1025.5 hPa 0 mm - 15 W/m² -
1787787950 28.89° C 80% 1025.5 hPa 0 mm - 24 W/m² -
1787787650 29.44° C 78% 1025.6 hPa 0 mm - 34 W/m² -
1787787349 29.44° C 78% 1025.5 hPa 0 mm - 45 W/m² -
1787787049 29.44° C 78% 1025.4 hPa 0 mm - 54 W/m² -

* Rain latest hour (hover to see other rain measurements)
** Current wind speed in m/s (hover to see current wind gust speed)